WMT7400 LUKK-LROP

Flight info

Callsign WMT7400
Flight time 0h 31m
Altitude 28000
Route LIPTA DCT KODRU DCT DENAK
Aircraft A321/M-SDE1E2E3FGIJ1J4RWXY/LB1

Departure

Time 2026-05-05 16:58
Airport Chişinău International Airport (LUKK)

Arrival

Time 2026-05-05 17:30
Airport Bucharest Henri Coandă International Airport (LROP)
Time Latitude Longitude Altitude Speed Heading
2026-05-05 16:50 46.93376 28.93546 408 ft 0 kts
2026-05-05 16:53 46.93377 28.93546 408 ft 1 kts
2026-05-05 16:54 46.93409 28.93542 406 ft 6 kts 327°
2026-05-05 16:54 46.93392 28.93487 408 ft 8 kts 197°
2026-05-05 16:54 46.93312 28.93472 408 ft 16 kts 187°
2026-05-05 16:54 46.93188 28.93448 410 ft 19 kts 195°
2026-05-05 16:55 46.93159 28.93325 410 ft 15 kts 278°
2026-05-05 16:55 46.93177 28.93120 410 ft 26 kts 277°
2026-05-05 16:55 46.93201 28.92840 408 ft 28 kts 277°
2026-05-05 16:55 46.93225 28.92550 406 ft 28 kts 278°
2026-05-05 16:56 46.93250 28.92267 407 ft 24 kts 276°
2026-05-05 16:56 46.93248 28.92051 406 ft 10 kts 230°
2026-05-05 16:56 46.93179 28.92015 408 ft 15 kts 195°
2026-05-05 16:56 46.93045 28.91990 408 ft 24 kts 178°
2026-05-05 16:57 46.92853 28.91999 408 ft 25 kts 179°
2026-05-05 16:57 46.92760 28.92011 409 ft 4 kts 113°
2026-05-05 16:57 46.92759 28.92042 409 ft 0 kts 90°
2026-05-05 16:57 46.92759 28.92044 409 ft 6 kts 90°
2026-05-05 16:58 46.92769 28.92571 410 ft 94 kts 88°
2026-05-05 16:58 46.92792 28.93883 421 ft 159 kts 96°
2026-05-05 16:58 46.92798 28.95591 970 ft 171 kts 94°
2026-05-05 16:58 46.92822 28.97369 1624 ft 180 kts 91°
2026-05-05 16:59 46.92865 28.99229 2223 ft 185 kts 90°
2026-05-05 16:59 46.92910 29.01125 2850 ft 188 kts 91°
2026-05-05 16:59 46.92954 29.03045 3466 ft 191 kts 89°
2026-05-05 16:59 46.92949 29.05001 4052 ft 194 kts 99°
2026-05-05 17:00 46.92232 29.06646 4592 ft 201 kts 146°
2026-05-05 17:00 46.90888 29.07155 5141 ft 205 kts 185°
2026-05-05 17:00 46.89593 29.06367 5679 ft 206 kts 223°
2026-05-05 17:00 46.88666 29.04770 6249 ft 210 kts 233°
2026-05-05 17:01 46.87731 29.03038 6670 ft 225 kts 233°
2026-05-05 17:01 46.86714 29.01154 7101 ft 247 kts 233°
2026-05-05 17:01 46.85601 28.99098 7564 ft 269 kts 233°
2026-05-05 17:01 46.84392 28.96876 8015 ft 290 kts 232°
2026-05-05 17:02 46.83086 28.94489 8490 ft 311 kts 232°
2026-05-05 17:02 46.81690 28.91948 8968 ft 330 kts 232°
2026-05-05 17:02 46.80210 28.89261 9438 ft 349 kts 232°
2026-05-05 17:02 46.78650 28.86431 9911 ft 366 kts 232°
2026-05-05 17:03 46.77023 28.83482 10353 ft 378 kts 232°
2026-05-05 17:03 46.75368 28.80481 10781 ft 380 kts 232°
2026-05-05 17:03 46.73704 28.77469 11249 ft 385 kts 232°
2026-05-05 17:03 46.72017 28.74422 12022 ft 389 kts 232°
2026-05-05 17:04 46.70310 28.71336 12788 ft 393 kts 232°
2026-05-05 17:04 46.68583 28.68212 13532 ft 399 kts 232°
2026-05-05 17:04 46.66830 28.65049 14224 ft 404 kts 232°
2026-05-05 17:04 46.65057 28.61856 14923 ft 408 kts 232°
2026-05-05 17:05 46.63237 28.58655 15626 ft 412 kts 227°
2026-05-05 17:05 46.61092 28.55866 16308 ft 417 kts 216°
2026-05-05 17:05 46.58759 28.53427 17010 ft 420 kts 215°
2026-05-05 17:05 46.56372 28.50936 17697 ft 424 kts 215°
2026-05-05 17:06 46.53962 28.48417 18398 ft 429 kts 215°
2026-05-05 17:06 46.51534 28.45881 19012 ft 432 kts 215°
2026-05-05 17:06 46.49084 28.43325 19621 ft 435 kts 215°
2026-05-05 17:06 46.46618 28.40756 20219 ft 438 kts 215°
2026-05-05 17:07 46.44131 28.38167 20800 ft 442 kts 215°
2026-05-05 17:07 46.41623 28.35560 21378 ft 445 kts 215°
2026-05-05 17:07 46.39097 28.32932 21942 ft 448 kts 215°
2026-05-05 17:07 46.36555 28.30290 22502 ft 452 kts 215°
2026-05-05 17:08 46.33994 28.27632 23015 ft 455 kts 216°
2026-05-05 17:08 46.31410 28.24960 23542 ft 459 kts 215°
2026-05-05 17:08 46.28803 28.22273 23989 ft 462 kts 215°
2026-05-05 17:08 46.26178 28.19567 24435 ft 464 kts 215°
2026-05-05 17:09 46.23543 28.16854 24910 ft 467 kts 215°
2026-05-05 17:09 46.20890 28.14119 25364 ft 469 kts 216°
2026-05-05 17:09 46.18358 28.11136 25796 ft 471 kts 224°
2026-05-05 17:09 46.16052 28.07764 26231 ft 473 kts 226°
2026-05-05 17:10 46.13745 28.04384 26817 ft 472 kts 226°
2026-05-05 17:10 46.11450 28.01028 27439 ft 470 kts 226°
2026-05-05 17:10 46.09159 27.97676 27874 ft 470 kts 226°
2026-05-05 17:10 46.06835 27.94287 27993 ft 480 kts 226°
2026-05-05 17:11 46.04456 27.90827 28004 ft 492 kts 226°
2026-05-05 17:11 46.02025 27.87301 28004 ft 500 kts 226°
2026-05-05 17:11 45.99562 27.83734 28000 ft 504 kts 226°
2026-05-05 17:11 45.97085 27.80153 27999 ft 505 kts 226°
2026-05-05 17:12 45.94607 27.76576 28000 ft 505 kts 226°
2026-05-05 17:12 45.92125 27.73002 28000 ft 506 kts 226°
2026-05-05 17:12 45.89638 27.69427 27999 ft 506 kts 226°
2026-05-05 17:12 45.87154 27.65855 27999 ft 506 kts 226°
2026-05-05 17:13 45.82188 27.58714 27999 ft 505 kts 226°
2026-05-05 17:13 45.79707 27.55148 28000 ft 505 kts 226°
2026-05-05 17:13 45.77221 27.51578 28000 ft 505 kts 226°
2026-05-05 17:14 45.74736 27.48015 27994 ft 505 kts 226°
2026-05-05 17:14 45.72285 27.44504 27994 ft 505 kts 226°
2026-05-05 17:14 45.69765 27.40902 27994 ft 505 kts 226°
2026-05-05 17:14 45.67277 27.37358 27991 ft 505 kts 226°
2026-05-05 17:15 45.64789 27.33824 27996 ft 504 kts 225°
2026-05-05 17:15 45.62303 27.30298 27996 ft 504 kts 225°
2026-05-05 17:15 45.59817 27.26775 27994 ft 501 kts 225°
2026-05-05 17:15 45.57366 27.23308 27448 ft 492 kts 225°
2026-05-05 17:16 45.54941 27.19879 26436 ft 492 kts 225°
2026-05-05 17:16 45.52499 27.16422 25561 ft 497 kts 225°
2026-05-05 17:16 45.50031 27.12927 24709 ft 501 kts 225°
2026-05-05 17:16 45.47562 27.09436 23887 ft 499 kts 225°
2026-05-05 17:17 45.45106 27.05970 23015 ft 495 kts 225°
2026-05-05 17:17 45.42696 27.02580 22518 ft 492 kts 225°
2026-05-05 17:17 45.40237 26.99129 22024 ft 489 kts 225°
2026-05-05 17:17 45.37853 26.95788 21559 ft 486 kts 225°
2026-05-05 17:18 45.35453 26.92429 21092 ft 482 kts 225°
2026-05-05 17:18 45.33076 26.89106 20637 ft 479 kts 225°
2026-05-05 17:18 45.30702 26.85793 20184 ft 476 kts 225°
2026-05-05 17:18 45.28349 26.82506 19740 ft 473 kts 225°
2026-05-05 17:19 45.26008 26.79241 19301 ft 470 kts 225°
2026-05-05 17:19 45.23682 26.76002 18855 ft 467 kts 225°
2026-05-05 17:19 45.21373 26.72788 18432 ft 464 kts 225°
2026-05-05 17:19 45.19006 26.69702 17958 ft 460 kts 217°
2026-05-05 17:20 45.17227 26.68093 17637 ft 458 kts 207°
2026-05-05 17:20 45.14279 26.66446 17166 ft 455 kts 198°
2026-05-05 17:20 45.11283 26.65038 16709 ft 453 kts 198°
2026-05-05 17:20 45.08288 26.63650 16246 ft 452 kts 197°
2026-05-05 17:21 45.05308 26.62277 15787 ft 450 kts 197°
2026-05-05 17:21 45.02336 26.60911 15335 ft 448 kts 197°
2026-05-05 17:21 44.99382 26.59555 14892 ft 445 kts 198°
2026-05-05 17:22 44.93523 26.56852 14030 ft 441 kts 198°
2026-05-05 17:22 44.90615 26.55504 13577 ft 439 kts 198°
2026-05-05 17:22 44.87729 26.54167 12999 ft 434 kts 198°
2026-05-05 17:22 44.84879 26.52849 12301 ft 429 kts 198°
2026-05-05 17:23 44.82059 26.51551 11581 ft 424 kts 198°
2026-05-05 17:23 44.79271 26.50272 10864 ft 417 kts 198°
2026-05-05 17:23 44.76571 26.49035 9540 ft 402 kts 199°
2026-05-05 17:23 44.73999 26.47854 8633 ft 377 kts 199°
2026-05-05 17:24 44.71580 26.46743 7756 ft 356 kts 198°
2026-05-05 17:24 44.69283 26.45687 6899 ft 340 kts 198°
2026-05-05 17:24 44.67085 26.44678 6039 ft 327 kts 198°
2026-05-05 17:24 44.64953 26.43707 5157 ft 316 kts 199°
2026-05-05 17:25 44.62893 26.42772 4278 ft 306 kts 199°
2026-05-05 17:25 44.61541 26.42156 3684 ft 300 kts 199°
2026-05-05 17:25 44.59292 26.40264 2760 ft 277 kts 234°
2026-05-05 17:25 44.58653 26.37903 2583 ft 247 kts 261°
2026-05-05 17:26 44.58483 26.35612 2515 ft 232 kts 265°
2026-05-05 17:26 44.58370 26.33421 2502 ft 221 kts 264°
2026-05-05 17:26 44.58226 26.31290 2532 ft 218 kts 264°
2026-05-05 17:26 44.58071 26.29173 2403 ft 218 kts 263°
2026-05-05 17:27 44.57917 26.27091 2178 ft 211 kts 263°
2026-05-05 17:27 44.57767 26.25057 1937 ft 208 kts 263°
2026-05-05 17:27 44.57623 26.23114 1700 ft 193 kts 263°
2026-05-05 17:27 44.57486 26.21271 1480 ft 188 kts 262°
2026-05-05 17:28 44.57351 26.19462 1261 ft 186 kts 262°
2026-05-05 17:28 44.57223 26.17735 1053 ft 166 kts 263°
2026-05-05 17:28 44.57110 26.16214 864 ft 150 kts 262°
2026-05-05 17:28 44.57003 26.14792 691 ft 145 kts 263°
2026-05-05 17:29 44.56900 26.13408 523 ft 141 kts 262°
2026-05-05 17:29 44.56795 26.12047 369 ft 140 kts 263°
2026-05-05 17:29 44.56698 26.10771 321 ft 109 kts 263°
2026-05-05 17:29 44.56643 26.10009 322 ft 62 kts 264°
2026-05-05 17:30 44.56603 26.09487 319 ft 49 kts 264°
2026-05-05 17:30 44.56569 26.09028 320 ft 45 kts 264°
2026-05-05 17:30 44.56572 26.08701 321 ft 29 kts 289°
2026-05-05 17:30 44.56688 26.08577 321 ft 18 kts 358°
2026-05-05 17:31 44.56781 26.08569 319 ft 13 kts 356°
2026-05-05 17:31 44.56860 26.08550 320 ft 12 kts 337°
2026-05-05 17:31 44.56896 26.08449 321 ft 13 kts 276°
2026-05-05 17:31 44.56857 26.08331 321 ft 15 kts 242°
2026-05-05 17:32 44.56806 26.08194 321 ft 17 kts 245°
2026-05-05 17:32 44.56827 26.08129 321 ft 5 kts 341°
2026-05-05 17:32 44.56851 26.08114 321 ft 2 kts 334°